Temp
62 62 62 62 62 62 63 62 62 62 62 62 62 62 62 62 62 60 57 60 62 65 64 61 61 61 59 55 55 53 41 38 44 46 47 54 51 53 55 52 53 56 52 53 57
62 61 61 61 62 62 62 62 62 61 62 62 62 62 62 62 57 57 63 66 65 65 60 58 57 59 52 52 52 46 38 45 49 47 46 52 51 53 50 52 50 50 53 55 56
61 61 61 61 61 62 62 62 61 61 62 62 62 61 61 59 54 56 65 65 65 64 61 60 59 57 49 51 50 48 42 50 51 52 51 50 51 52 47 49 52 51 52 52 50
61 61 61 61 62 62 62 61 61 61 61 62 62 61 61 56 46 57 64 64 65 62 60 59 55 49 47 47 54 45 51 52 54 52 51 48 50 48 49 52 57 53 55 51 50
60 60 60 61 62 63 62 61 61 61 61 61 61 61 56 50 53 61 63 64 61 60 57 56 52 50 46 49 51 46 48 53 52 52 51 51 48 47 49 53 56 56 55 53 51
60 60 60 60 61 61 61 60 60 60 61 61 61 61 51 46 61 63 61 60 61 58 56 55 52 52 48 48 46 47 48 48 50 51 51 49 46 46 50 52 52 54 53 51 51
60 60 59 60 60 59 59 59 60 60 60 61 61 60 53 52 61 61 62 58 58 57 55 55 54 50 50 46 50 48 43 45 47 48 47 47 44 43 51 51 50 50 52 52 52
60 60 59 59 58 58 59 59 60 60 60 61 61 54 47 60 58 61 61 57 59 59 57 56 55 50 48 49 47 42 39 34 46 47 45 45 35 48 50 48 48 49 47 51 53
59 59 58 57 57 58 58 59 59 59 61 61 53 50 47 60 55 58 58 55 56 56 56 62 52 46 46 38 34 35 30 35 41 47 43 41 36 48 50 49 48 48 49 50 51
57 56 55 56 57 56 57 58 59 59 58 61 60 47 50 50 55 58 57 57 53 52 50 47 44 37 36 33 25 31 31 36 35 42 41 38 37 43 49 48 46 45 45 42 40
54 54 54 54 55 56 55 52 48 46 51 48 49 49 51 53 57 54 56 54 52 47 38 42 34 30 37 39 40 38 32 31 37 43 38 37 36 41 46 44 42 38 36 36 37
53 53 54 54 55 54 52 48 50 50 44 53 53 52 54 54 47 50 55 46 44 37 41 36 31 41 45 44 40 36 30 31 38 41 36 34 35 41 41 38 37 37 36 35 35
52 52 52 53 54 52 49 49 53 53 43 48 51 50 49 52 46 45 49 46 41 38 37 32 39 46 43 39 37 34 31 31 31 34 35 31 28 32 38 40 40 39 37 36 34
51 51 52 52 49 49 47 51 52 50 34 40 43 46 48 49 41 49 50 46 41 37 38 37 43 42 39 38 38 31 36 34 31 24 22 30 17 29 35 35 36 36 34 33 34
51 50 51 54 48 45 48 51 50 48 24 41 41 50 48 43 41 41 48 44 38 39 37 33 37 36 33 37 39 31 36 32 30 24 19 24 15 26 34 31 32 32 34 33 32
53 52 51 49 48 48 49 49 47 31 23 34 38 37 38 41 40 41 42 44 44 38 38 36 42 38 37 40 38 38 32 31 28 27 20 21 20 22 24 26 31 32 32 33 34
52 52 51 51 44 49 48 44 30 25 38 29 31 36 35 34 36 37 35 33 29 25 27 33 34 37 40 32 37 30 26 12 18 15 12 26 21 24 29 31 29 29 31 32 34
52 52 49 50 51 49 45 36 25 27 26 39 37 35 30 35 34 35 32 28 35 32 29 25 21 31 35 30 27 28 24 16 7 11 14 27 14 25 27 25 22 24 25 34 35
52 44 44 47 50 47 39 28 29 30 36 35 36 29 29 34 32 32 32 32 35 36 27 24 24 33 33 33 32 28 22 27 18 8 9 16 24 29 30 26 26 25 32 33 33
42 41 44 49 48 44 34 30 31 37 38 36 29 31 24 28 29 30 31 35 34 39 39 29 22 32 31 32 33 29 31 18 14 4 4 15 17 20 22 20 25 23 28 29 29
40 36 44 47 46 39 29 31 32 39 39 32 28 30 31 30 31 30 30 33 37 36 39 32 26 26 30 25 21 26 20 23 22 17 7 7 15 21 21 19 20 24 27 26 26
39 29 44 47 34 32 31 32 36 34 38 37 37 33 30 30 30 31 28 32 40 38 30 32 24 17 19 27 30 26 21 21 12 10 9 13 15 19 20 18 19 25 28 24 25
34 33 44 43 28 30 32 32 33 33 34 35 33 34 31 29 26 30 29 36 39 34 29 30 25 19 22 25 27 25 27 22 18 18 9 12 15 14 15 19 23 20 21 24 27
36 26 35 37 36 32 30 30 29 35 36 39 36 35 29 26 29 25 28 33 36 35 38 35 25 17 15 16 16 21 26 27 23 8 7 14 12 15 19 20 23 21 22 18 18
36 31 29 26 30 32 31 29 29 28 34 37 32 30 29 25 26 21 30 31 34 37 33 29 16 16 22 27 20 13 13 22 24 19 17 11 11 14 20 19 21 20 20 19 19
33 31 29 27 30 30 32 27 30 30 30 30 25 31 26 23 26 23 29 30 30 31 29 28 17 13 9 8 7 15 17 18 24 23 20 22 22 21 17 13 19 20 18 15 13
35 39 35 29 27 27 29 30 31 33 35 36 34 29 27 28 31 32 35 34 32 26 27 23 17 11 5 10 12 10 13 15 14 8 22 20 22 12 16 16 17 22 15 15 18
MSLP
1018.97 1018.68 1018.76 1018.23 1018.46 1018.21 1017.98 1017.96 1017.74 1017.43 1017.05 1017.08 1016.94 1016.77 1016.59 1016.33 1016.07 1016.12 1016.03 1015.95 1015.82 1015.74 1015.71 1015.59 1015.14 1015.04 1014.86 1014.92 1014.90 1015.09 1015.81 1015.54 1014.44 1013.83 1013.49 1012.94 1012.77 1012.51 1012.55 1012.75 1012.85 1013.08 1013.86 1014.31 1014.95
1018.68 1018.75 1018.75 1018.22 1018.49 1018.24 1017.95 1017.83 1017.69 1017.41 1016.99 1016.87 1016.85 1016.60 1016.48 1016.27 1016.16 1015.79 1015.69 1015.64 1015.64 1015.66 1015.72 1015.69 1015.36 1015.05 1015.23 1015.15 1015.28 1015.55 1015.78 1014.82 1014.01 1013.78 1013.91 1013.64 1013.49 1013.19 1013.14 1013.18 1013.32 1013.76 1014.38 1014.54 1015.15
1018.58 1018.53 1018.45 1018.34 1018.14 1018.29 1017.78 1017.64 1017.64 1017.35 1016.90 1016.68 1016.61 1016.46 1016.37 1016.21 1016.28 1015.52 1015.39 1015.36 1015.48 1015.54 1015.66 1015.53 1015.32 1015.29 1015.39 1015.21 1015.34 1015.35 1015.16 1014.48 1014.01 1013.88 1013.95 1013.98 1013.92 1013.73 1013.66 1013.22 1013.21 1013.67 1014.71 1015.17 1015.35
1018.34 1018.28 1018.29 1018.21 1017.86 1018.06 1017.68 1017.56 1017.37 1017.20 1016.82 1016.59 1016.46 1016.38 1016.27 1016.34 1016.17 1015.34 1015.41 1015.47 1015.50 1015.51 1015.41 1015.36 1015.38 1015.45 1015.44 1015.43 1015.07 1015.32 1014.78 1014.68 1014.37 1014.19 1014.12 1014.25 1014.31 1014.28 1014.09 1013.12 1013.04 1013.46 1013.78 1015.04 1015.59
1017.95 1018.05 1017.84 1017.92 1017.58 1017.41 1017.66 1017.22 1017.24 1016.86 1016.73 1016.41 1016.32 1016.26 1016.44 1016.32 1015.36 1015.23 1015.16 1015.31 1015.46 1015.53 1015.42 1015.31 1015.35 1015.26 1015.23 1015.21 1015.03 1015.08 1015.01 1014.72 1014.55 1014.52 1014.51 1014.46 1014.50 1014.69 1013.72 1013.17 1013.04 1013.26 1013.86 1014.47 1014.89
1017.43 1017.53 1017.59 1017.35 1017.39 1017.23 1017.22 1017.12 1016.97 1016.76 1016.47 1016.27 1016.21 1016.26 1016.47 1016.02 1014.93 1015.04 1015.25 1015.08 1015.09 1015.22 1015.21 1015.37 1015.45 1015.57 1015.46 1015.23 1015.28 1015.35 1015.35 1015.08 1014.71 1014.37 1014.56 1014.67 1014.67 1014.67 1013.21 1012.86 1012.95 1013.11 1013.56 1013.91 1014.36
1016.88 1017.07 1017.22 1017.19 1017.11 1017.24 1016.98 1016.91 1016.78 1016.51 1016.35 1016.23 1016.10 1016.14 1015.89 1015.18 1014.82 1015.01 1015.09 1015.28 1015.19 1015.19 1015.06 1015.24 1015.50 1015.70 1015.83 1015.72 1015.62 1015.54 1015.83 1015.18 1014.46 1014.26 1014.87 1014.84 1014.99 1014.42 1013.08 1013.18 1013.29 1013.29 1013.37 1013.60 1013.96
1016.33 1016.51 1016.50 1016.86 1016.99 1017.08 1016.92 1016.63 1016.48 1016.32 1016.09 1016.05 1016.09 1016.07 1015.55 1014.87 1014.78 1014.94 1014.96 1015.28 1015.26 1015.21 1015.35 1015.46 1015.53 1015.75 1015.88 1016.07 1016.01 1016.21 1016.30 1015.89 1014.62 1014.45 1015.13 1015.21 1015.06 1013.96 1013.26 1013.11 1013.43 1013.38 1013.63 1013.67 1013.66
1015.68 1016.02 1016.08 1016.43 1016.59 1016.83 1016.74 1016.48 1016.26 1016.05 1015.93 1015.89 1016.04 1016.03 1015.31 1014.99 1014.95 1014.86 1014.98 1015.24 1015.28 1015.50 1015.59 1015.74 1015.85 1016.12 1016.27 1016.61 1016.86 1016.57 1016.57 1015.99 1015.19 1015.03 1015.49 1015.76 1015.20 1014.10 1013.49 1013.52 1013.87 1013.95 1013.96 1013.77 1013.53
1015.45 1015.66 1016.14 1016.20 1016.36 1016.52 1016.42 1016.21 1016.03 1015.99 1015.84 1015.70 1015.60 1015.92 1015.36 1014.69 1014.64 1014.77 1014.92 1015.11 1015.41 1015.64 1016.00 1016.24 1016.58 1016.74 1016.94 1017.15 1016.95 1016.62 1016.70 1016.23 1015.97 1015.78 1015.96 1016.13 1015.37 1014.62 1013.93 1013.86 1014.14 1014.52 1014.62 1014.81 1015.12
1016.13 1016.01 1016.17 1016.08 1016.30 1016.27 1016.15 1016.30 1016.53 1016.39 1015.67 1014.52 1014.32 1014.27 1014.27 1014.65 1014.63 1014.88 1015.11 1015.33 1015.57 1015.91 1016.30 1016.37 1017.04 1016.76 1016.35 1016.29 1016.31 1016.56 1016.78 1016.93 1016.39 1016.35 1016.40 1016.24 1015.98 1015.02 1014.24 1014.37 1014.85 1015.39 1016.04 1016.29 1016.61
1016.32 1016.65 1016.04 1016.03 1016.01 1016.13 1015.82 1015.86 1015.41 1015.50 1014.88 1013.81 1013.98 1014.09 1014.18 1014.24 1014.80 1015.07 1015.30 1015.74 1015.87 1016.07 1016.24 1016.81 1016.49 1015.98 1016.04 1016.22 1016.43 1016.72 1017.16 1017.30 1016.90 1016.88 1017.29 1017.01 1016.28 1015.11 1014.94 1015.67 1016.00 1016.57 1017.10 1017.43 1017.78
1016.63 1016.74 1016.47 1016.20 1015.74 1015.89 1015.33 1015.46 1015.23 1015.17 1015.20 1013.92 1013.55 1013.75 1014.10 1014.35 1014.43 1014.87 1015.30 1015.51 1015.69 1016.04 1016.07 1016.35 1015.95 1015.84 1016.05 1016.46 1016.80 1017.15 1017.61 1017.88 1018.33 1018.17 1017.95 1018.01 1017.02 1016.35 1016.41 1016.38 1016.67 1017.17 1017.73 1018.20 1018.43
1016.88 1016.63 1016.56 1016.21 1016.06 1015.32 1015.20 1015.29 1015.12 1015.38 1015.02 1013.93 1013.59 1013.52 1013.81 1014.02 1014.78 1014.82 1014.96 1015.28 1015.66 1015.77 1016.19 1016.19 1015.82 1015.90 1016.27 1016.75 1017.17 1018.02 1018.14 1018.58 1019.02 1019.57 1020.04 1019.55 1019.48 1017.60 1017.36 1017.56 1017.70 1017.87 1018.15 1018.43 1018.65
1016.71 1016.48 1016.70 1016.28 1015.55 1015.44 1015.27 1015.23 1015.07 1015.29 1014.43 1013.27 1013.57 1013.79 1013.74 1014.44 1014.69 1015.19 1015.17 1015.28 1015.57 1015.54 1016.06 1016.32 1016.33 1016.40 1016.74 1017.18 1017.62 1018.46 1018.77 1019.29 1019.77 1020.80 1021.31 1020.74 1021.37 1018.27 1018.09 1018.45 1018.24 1018.30 1018.48 1018.53 1018.45
1016.75 1016.36 1016.41 1015.86 1015.48 1015.29 1015.36 1015.33 1015.14 1015.29 1013.36 1013.20 1013.62 1013.80 1014.15 1014.42 1014.85 1015.35 1015.44 1015.59 1015.58 1015.85 1016.12 1016.55 1016.77 1017.04 1017.35 1017.74 1018.37 1018.98 1019.52 1020.14 1020.65 1021.36 1021.95 1021.28 1021.22 1019.17 1019.00 1019.02 1018.76 1018.82 1018.83 1018.81 1018.69
1016.57 1016.08 1016.02 1015.50 1015.21 1015.01 1015.51 1015.53 1015.15 1013.69 1012.52 1013.18 1013.53 1013.84 1013.99 1014.49 1015.08 1015.13 1015.64 1015.70 1015.61 1016.16 1016.71 1017.05 1017.49 1017.88 1017.91 1018.52 1019.08 1019.58 1020.41 1021.96 1022.27 1022.62 1022.32 1021.52 1021.32 1019.23 1019.09 1019.08 1019.24 1019.54 1019.31 1018.95 1018.73
1015.93 1015.72 1015.46 1014.98 1014.68 1015.13 1015.42 1015.07 1013.73 1012.53 1012.31 1012.21 1012.66 1013.88 1014.19 1014.38 1014.88 1015.00 1015.41 1015.61 1015.44 1015.59 1016.30 1017.00 1018.41 1018.39 1018.87 1019.19 1019.47 1020.04 1020.75 1021.75 1022.93 1023.65 1023.25 1022.05 1020.92 1019.20 1019.23 1019.57 1019.89 1020.03 1019.69 1019.24 1018.98
1015.77 1015.32 1014.64 1014.25 1014.67 1014.89 1014.90 1014.26 1012.73 1012.32 1011.93 1012.20 1012.95 1013.85 1014.25 1014.25 1014.40 1014.85 1015.22 1015.00 1014.76 1015.33 1015.73 1016.74 1018.49 1019.29 1019.58 1019.89 1020.12 1020.64 1021.30 1021.88 1023.11 1024.69 1024.22 1022.11 1020.71 1020.00 1019.98 1020.45 1020.48 1020.46 1020.12 1019.77 1019.45
1015.91 1015.39 1013.95 1013.62 1014.31 1014.62 1014.55 1013.71 1012.91 1012.36 1011.83 1012.00 1012.47 1013.46 1013.94 1014.30 1014.64 1014.81 1014.71 1014.46 1014.90 1015.01 1015.09 1016.67 1018.44 1019.67 1020.27 1020.40 1020.67 1020.85 1021.49 1022.49 1023.95 1024.92 1024.45 1022.51 1021.78 1020.66 1021.14 1021.57 1021.36 1021.09 1020.62 1020.36 1020.02
1015.88 1014.91 1013.74 1013.59 1014.37 1013.58 1013.72 1013.53 1013.01 1012.49 1012.16 1012.33 1012.95 1013.58 1013.78 1014.29 1014.68 1014.87 1014.69 1014.67 1014.87 1015.17 1015.41 1016.70 1018.12 1020.62 1020.96 1020.98 1021.05 1021.71 1021.84 1022.67 1023.63 1024.14 1024.37 1024.18 1021.79 1021.05 1021.54 1021.90 1021.84 1021.37 1021.04 1020.79 1020.57
1015.48 1014.72 1013.60 1013.63 1014.27 1013.23 1013.38 1013.11 1013.11 1012.85 1012.60 1012.65 1012.94 1013.46 1013.97 1014.44 1014.97 1015.20 1014.96 1014.77 1014.84 1015.32 1016.19 1016.99 1018.31 1020.38 1021.17 1021.49 1021.57 1021.45 1021.78 1022.59 1023.63 1024.26 1024.41 1024.60 1022.45 1021.39 1021.82 1021.94 1021.72 1021.45 1021.14 1021.00 1020.85
1014.98 1014.23 1014.00 1014.00 1013.88 1013.49 1013.74 1013.29 1013.05 1013.15 1013.10 1013.10 1013.20 1013.79 1014.37 1014.79 1015.52 1015.43 1015.46 1015.58 1015.32 1016.10 1016.62 1017.28 1018.54 1020.78 1021.68 1022.27 1022.16 1021.94 1021.72 1022.37 1022.96 1023.35 1024.05 1024.51 1022.39 1021.80 1021.95 1021.98 1021.72 1021.63 1021.28 1021.14 1021.11
1014.71 1014.10 1014.00 1013.95 1013.65 1013.73 1013.51 1013.25 1013.38 1013.51 1013.22 1012.95 1013.51 1013.95 1014.81 1015.39 1015.74 1015.80 1016.19 1016.35 1016.36 1016.98 1017.03 1017.61 1018.88 1020.12 1020.81 1021.29 1021.64 1022.48 1022.05 1022.16 1022.66 1023.55 1023.35 1022.66 1022.22 1022.31 1022.17 1022.09 1021.85 1021.72 1021.34 1021.50 1021.85
1014.35 1013.76 1013.89 1013.75 1013.46 1013.44 1013.52 1013.08 1013.31 1013.53 1013.54 1013.36 1013.67 1013.91 1014.85 1015.99 1016.34 1016.37 1016.43 1016.82 1017.39 1017.45 1017.88 1018.39 1019.88 1020.78 1021.75 1022.25 1022.51 1022.52 1022.38 1022.33 1022.21 1021.86 1022.27 1022.07 1022.29 1022.08 1021.99 1021.97 1021.81 1021.67 1021.60 1021.67 1021.78
1013.92 1013.86 1014.15 1013.86 1013.53 1013.61 1013.46 1012.96 1013.09 1013.40 1013.40 1013.55 1013.64 1014.15 1014.86 1015.75 1015.78 1016.18 1016.10 1016.66 1017.15 1017.97 1018.55 1019.35 1020.75 1021.70 1022.68 1023.18 1023.59 1023.52 1022.51 1022.26 1022.13 1021.93 1021.86 1021.89 1021.37 1021.54 1021.16 1021.62 1021.82 1022.01 1021.80 1021.89 1021.85
1013.61 1013.41 1013.56 1013.55 1013.49 1013.47 1013.12 1013.02 1013.06 1012.99 1013.29 1013.25 1013.59 1014.43 1015.24 1015.33 1015.52 1015.86 1016.00 1016.37 1016.95 1017.76 1018.78 1019.94 1021.16 1022.70 1023.62 1023.84 1024.16 1023.93 1021.68 1021.70 1021.77 1021.50 1021.60 1022.23 1021.64 1021.83 1022.01 1021.97 1021.55 1021.52 1021.63 1021.83 1021.92
Wind_Speed
7 5 5 5 6 6 7 8 10 9 9 9 8 7 7 7 8 2 3 2 1 5 6 6 3 4 1 1 2 3 3 3 4 2 2 4 3 2 3 2 2 2 5 3 11
7 7 7 4 7 7 7 8 9 10 9 8 8 7 7 6 2 5 4 3 3 5 3 3 2 3 1 2 0 4 4 7 1 1 1 5 5 6 2 5 3 2 3 8 12
8 8 7 6 6 8 7 8 10 10 11 8 7 6 5 3 2 2 4 4 1 2 3 2 3 1 2 3 3 5 6 2 1 4 1 2 7 5 1 8 8 4 8 9 7
10 9 8 7 7 8 8 9 10 11 11 9 6 5 3 2 4 3 3 1 1 3 2 3 2 2 3 4 6 3 6 3 6 2 2 1 4 6 4 9 4 1 6 10 8
10 10 10 12 9 9 10 9 11 10 11 7 4 2 2 2 5 5 5 3 2 2 2 1 3 2 3 2 1 3 3 6 6 7 5 2 7 6 14 10 9 7 7 14 11
12 11 11 12 10 8 6 8 9 11 11 6 3 1 1 4 4 7 4 3 1 2 2 1 1 1 3 3 2 1 4 8 8 9 5 5 5 1 11 8 7 6 8 10 12
14 12 12 11 7 8 6 8 10 10 10 6 3 2 3 7 4 5 5 2 0 0 3 3 2 2 4 4 4 3 5 8 7 5 5 3 7 8 15 7 9 9 8 8 10
15 14 11 7 6 7 7 9 10 10 7 5 3 2 6 1 3 3 5 3 2 1 4 3 2 1 1 2 3 1 2 4 3 5 1 3 8 5 3 3 4 4 8 8 8
13 13 11 8 6 5 7 10 11 9 6 4 1 3 6 1 3 3 1 4 4 2 2 1 2 2 2 2 3 2 3 5 3 1 3 4 6 8 5 3 9 9 9 9 8
3 5 1 3 4 4 6 10 6 4 4 5 5 1 2 4 5 5 1 4 2 5 3 2 2 2 2 4 5 4 4 3 3 2 3 6 12 11 14 8 8 9 8 7 10
10 5 1 2 4 4 1 2 1 2 4 8 6 2 5 3 3 3 2 3 2 1 4 4 4 7 9 8 1 3 3 4 5 2 5 6 10 14 14 7 6 8 7 9 10
10 12 11 8 3 4 1 4 1 0 5 13 3 2 3 5 4 4 3 5 5 5 5 4 7 5 5 5 3 2 1 5 6 3 3 6 16 17 7 6 6 7 7 7 6
9 9 12 13 3 3 3 3 1 2 2 3 5 5 5 5 3 9 9 4 4 5 8 7 1 5 3 1 3 2 4 2 3 7 2 7 8 6 5 6 7 7 6 5 6
7 9 11 15 2 1 3 4 1 2 3 6 6 4 4 6 3 2 3 4 3 9 7 5 5 4 3 3 5 2 1 1 2 5 2 5 7 5 4 6 6 5 6 5 5
6 8 13 9 7 2 2 3 1 1 4 4 5 0 4 4 7 0 1 2 5 6 7 5 5 4 3 2 3 4 2 2 2 3 5 3 4 8 3 2 2 4 4 4 1
10 5 9 7 2 1 2 2 1 3 8 5 4 5 6 3 3 4 3 0 1 3 4 3 1 3 3 3 3 2 2 3 2 2 2 5 5 5 2 5 1 2 2 5 6
11 9 7 4 2 6 4 2 4 6 1 6 5 6 5 6 4 5 6 6 7 6 4 3 2 2 2 4 1 5 4 3 3 1 7 4 1 7 4 3 3 3 7 7 6
15 14 8 7 4 6 3 3 8 3 4 4 7 8 6 7 4 7 7 6 4 2 4 7 4 3 1 2 6 3 6 6 7 3 5 2 6 7 5 5 4 5 6 5 6
15 4 3 4 5 3 3 7 4 4 4 7 7 5 4 3 5 5 7 6 7 9 7 5 2 3 5 2 2 3 2 3 5 3 3 4 4 4 2 5 6 6 6 7 7
2 4 4 7 7 5 4 4 4 1 2 4 4 3 5 5 5 6 9 1 5 2 2 3 6 2 3 3 4 2 3 5 3 1 4 6 4 7 4 4 5 7 8 8 7
2 3 1 6 4 3 6 4 3 3 2 4 2 4 3 5 5 5 7 2 3 3 5 4 5 3 3 5 7 2 1 1 3 4 6 2 8 4 8 6 6 7 6 7 7
3 3 3 3 4 1 4 5 4 2 2 2 3 3 3 5 4 5 3 3 6 5 7 3 5 3 3 0 3 3 6 5 6 6 2 3 9 5 7 5 5 6 4 5 4
3 3 2 1 6 6 2 0 2 3 4 2 3 3 0 3 2 1 5 3 7 4 4 5 3 5 1 1 1 3 5 3 3 2 6 6 8 2 3 4 5 4 4 4 4
3 2 3 3 1 6 3 4 4 2 2 4 4 5 4 3 3 4 4 2 4 2 6 4 3 6 7 6 6 6 10 10 5 3 4 8 5 5 4 5 7 5 4 4 5
3 2 2 3 6 5 3 5 5 5 2 3 2 5 6 4 2 2 3 4 2 6 3 4 5 2 3 5 2 6 7 12 17 12 8 5 7 6 6 5 4 4 5 4 5
2 2 1 1 3 6 8 3 6 3 6 4 5 7 4 6 8 8 7 5 4 4 3 2 3 3 4 3 5 5 10 10 16 14 12 13 23 8 4 2 4 5 5 4 4
3 1 1 3 2 5 6 4 8 9 4 3 6 6 5 5 5 3 4 4 9 8 4 5 5 3 5 1 1 7 11 13 5 4 11 13 11 2 3 5 5 6 4 2 6
Wind_Direction
302 302 297 322 318 320 327 329 335 338 339 321 310 309 307 314 309 205 227 165 77 341 331 290 288 257 336 234 52 43 59 229 256 1 323 327 36 16 171 321 355 36 120 214 133
283 289 294 303 307 313 322 327 326 330 336 326 313 309 307 327 266 232 138 129 54 346 346 312 244 168 324 190 286 110 149 222 262 49 17 335 20 330 7 309 281 83 7 130 138
271 271 278 291 296 304 316 320 320 323 331 324 315 305 303 326 309 196 173 135 94 300 261 291 301 341 226 145 203 195 207 234 176 141 107 344 327 328 74 282 218 211 177 180 160
263 261 269 268 278 296 306 315 314 316 323 318 311 297 315 264 222 143 161 148 265 271 254 206 236 187 221 209 205 243 251 287 304 44 84 327 327 330 233 236 218 148 177 172 177
252 255 253 254 268 282 297 306 307 306 314 310 310 310 318 233 242 173 165 195 254 244 237 227 202 217 210 301 111 209 276 295 312 306 276 213 247 237 265 269 275 293 161 183 183
245 244 250 261 273 291 295 299 304 301 307 296 284 336 224 243 131 148 170 176 145 215 199 340 20 253 276 249 169 152 305 284 280 268 240 240 266 137 268 259 259 260 210 191 190
239 238 243 263 264 280 291 298 300 295 300 285 271 252 260 235 144 152 179 121 333 358 143 100 35 81 339 302 352 353 328 308 260 240 196 99 298 232 256 277 285 290 251 214 213
236 234 227 224 254 276 292 297 296 294 282 266 279 260 245 80 149 176 143 140 221 49 92 91 49 165 177 319 321 278 157 317 303 111 228 135 264 268 269 129 300 280 249 259 237
237 226 197 203 232 272 295 304 299 279 255 251 241 198 262 74 181 149 18 171 125 109 48 124 71 138 85 113 351 266 230 212 286 227 123 180 252 259 269 322 276 274 269 252 245
223 133 167 216 229 262 305 312 323 286 257 235 272 236 173 204 149 140 47 127 154 133 99 106 65 81 16 111 221 182 225 306 273 4 203 250 258 271 279 264 261 290 318 23 61
47 78 113 49 313 291 334 77 358 289 246 201 194 213 110 85 86 147 127 132 142 151 170 211 114 209 209 211 162 141 172 237 272 338 338 254 285 283 281 294 335 65 57 66 56
35 1 6 3 299 248 170 211 180 79 281 220 209 129 129 179 123 149 150 153 163 192 151 60 220 204 151 128 130 97 303 275 281 68 359 297 293 293 347 71 85 77 66 65 67
34 4 343 329 335 222 188 228 29 358 256 227 184 173 179 150 188 179 157 180 179 192 178 161 180 141 139 165 159 205 204 263 240 335 309 325 311 349 44 81 78 64 86 73 116
13 0 337 326 226 272 188 175 177 264 227 222 205 196 132 150 188 119 149 168 203 200 173 228 182 173 173 196 124 194 122 97 22 51 257 56 282 334 59 68 69 69 69 73 62
1 360 327 314 312 225 107 150 140 133 230 124 135 113 152 170 126 280 77 78 180 179 115 227 153 132 130 149 101 194 115 134 97 70 49 318 79 271 183 59 45 84 75 51 37
327 311 303 292 202 195 146 122 140 172 233 151 128 157 131 157 129 130 133 313 200 111 75 110 51 82 129 104 105 120 71 72 71 80 321 242 145 267 249 205 112 121 346 321 305
321 308 293 283 280 148 142 182 194 207 343 181 176 161 163 155 147 156 163 177 163 120 187 119 127 85 77 106 174 69 70 360 338 358 221 257 111 249 231 222 186 278 309 311 304
318 303 274 226 164 149 175 217 229 208 204 186 125 126 169 150 180 183 145 183 224 123 135 153 270 136 36 144 175 155 141 156 210 236 257 326 241 262 218 254 258 252 272 310 332
309 281 236 209 194 144 200 223 197 201 168 141 124 126 190 161 132 140 186 193 187 191 165 127 125 90 62 31 58 185 156 145 95 31 45 231 283 348 135 345 348 332 328 319 314
321 275 214 159 151 162 217 245 227 253 117 85 123 137 158 180 142 183 179 164 162 164 111 174 103 154 129 55 34 117 163 65 5 172 268 289 264 230 199 283 312 326 330 320 317
281 252 104 114 176 193 212 259 173 35 65 105 125 121 136 160 181 202 186 13 127 110 83 122 96 135 100 201 171 148 57 136 122 165 163 261 265 219 169 209 246 289 307 305 312
260 237 160 138 214 187 238 183 172 152 7 115 122 98 133 145 161 225 140 88 116 130 142 158 134 144 201 55 306 182 191 149 137 247 209 152 271 202 179 204 220 275 300 290 305
244 191 178 198 214 220 170 48 100 136 177 149 157 111 358 123 144 177 86 14 88 68 150 179 151 128 143 95 19 229 192 176 144 100 206 145 258 299 265 304 259 276 306 339 338
264 231 178 195 237 195 194 173 141 253 176 146 134 94 70 61 50 166 123 89 63 91 101 97 111 161 180 190 142 195 209 203 153 145 200 226 256 293 264 308 317 305 303 311 317
229 253 187 191 218 236 212 173 150 158 172 223 119 148 152 144 113 205 116 115 103 156 75 104 172 104 269 243 232 197 190 200 211 212 190 240 213 250 238 239 260 275 296 325 343
230 201 5 257 184 189 223 227 166 140 152 230 141 167 149 159 183 195 134 164 171 141 128 82 148 92 305 344 183 246 229 212 223 236 254 271 281 212 259 322 315 275 286 301 311
219 250 201 262 187 155 210 185 197 141 212 213 166 124 166 190 130 103 96 143 155 147 148 145 129 96 268 228 96 305 226 188 193 234 211 241 245 232 307 317 287 298 234 267 304